When you browse on this site, cookies collect data to enhance your experience and personalize the content and advertising you see.
Visit our Privacy Policy to learn more. By continuing to use the site, you agree to this use of cookies and data.
  • Em Portugal
  • Lista de países
  • Para 7 dias
  • Temperatura da água
  • Mapas de satélite
  • Mapa do tempo
  • Widgets de tempo
  • user-avatar
    Iniciar Sessão

    Previsão horária em Kashische

    Hoje, 17 Fevereiro, Domingo

    Tempo Temperatura Precipitação Vento Pressão Humidade
    00:00 +1°C° 0 mm 5 m/s 750 mmHg 80%
    01:00 +1°C° 0 mm 5 m/s 750 mmHg 82%
    02:00 +1°C° 0 mm 5 m/s 749 mmHg 85%
    03:00 0°C° 0 mm 5 m/s 749 mmHg 87%
    04:00 0°C° 0 mm 4 m/s 750 mmHg 88%
    05:00 0°C° 0 mm 4 m/s 750 mmHg 90%
    06:00 -1°C° 0 mm 4 m/s 750 mmHg 89%
    07:00 -2°C° 0 mm 4 m/s 751 mmHg 88%
    08:00 -2°C° 0 mm 4 m/s 751 mmHg 86%
    09:00 -2°C° 0 mm 5 m/s 751 mmHg 82%
    10:00 -1°C° 0 mm 5 m/s 752 mmHg 78%
    11:00 -1°C° 0 mm 5 m/s 752 mmHg 74%
    12:00 0°C° 0 mm 5 m/s 753 mmHg 73%
    13:00 0°C° 0 mm 5 m/s 753 mmHg 72%
    14:00 0°C° 0 mm 5 m/s 754 mmHg 71%
    15:00 0°C° 0 mm 5 m/s 755 mmHg 73%
    16:00 -1°C° 0 mm 5 m/s 755 mmHg 75%
    17:00 -2°C° 0 mm 4 m/s 756 mmHg 77%
    18:00 -2°C° 0 mm 4 m/s 756 mmHg 78%
    19:00 -3°C° 0 mm 4 m/s 757 mmHg 79%
    20:00 -3°C° 0 mm 4 m/s 758 mmHg 80%
    21:00 -2°C° 0 mm 3 m/s 758 mmHg 81%
    22:00 -4°C° 0 mm 3 m/s 759 mmHg 82%
    23:00 -4°C° 0 mm 3 m/s 760 mmHg 83%

    Amanhã, 18 Fevereiro, Segunda-feira

    Tempo Temperatura Precipitação Vento Pressão Humidade
    00:00 -4°C° 0 mm 2 m/s 760 mmHg 84%
    01:00 -4°C° 0 mm 2 m/s 761 mmHg 85%
    02:00 -4°C° 0 mm 2 m/s 761 mmHg 86%
    03:00 -5°C° 0 mm 2 m/s 762 mmHg 87%
    04:00 -5°C° 0 mm 2 m/s 762 mmHg 87%
    05:00 -3°C° 0 mm 1 m/s 762 mmHg 88%
    06:00 -4°C° 0 mm 1 m/s 763 mmHg 88%
    07:00 -4°C° 0 mm 1 m/s 763 mmHg 88%
    08:00 -4°C° 0 mm 1 m/s 763 mmHg 87%
    09:00 -4°C° 0 mm 0 m/s 763 mmHg 81%
    10:00 -3°C° 0 mm 0 m/s 764 mmHg 74%
    11:00 -2°C° 0 mm 0 m/s 764 mmHg 67%
    12:00 0°C° 0 mm 1 m/s 763 mmHg 65%
    13:00 0°C° 0 mm 1 m/s 763 mmHg 63%
    14:00 +1°C° 0 mm 1 m/s 763 mmHg 62%
    15:00 -2°C° 0 mm 2 m/s 763 mmHg 66%
    16:00 -3°C° 0 mm 2 m/s 762 mmHg 71%
    17:00 -3°C° 0 mm 2 m/s 762 mmHg 75%
    18:00 -3°C° 0 mm 2 m/s 762 mmHg 74%
    19:00 -4°C° 0 mm 3 m/s 761 mmHg 72%
    20:00 -4°C° 0 mm 3 m/s 761 mmHg 71%
    21:00 -4°C° 0 mm 3 m/s 761 mmHg 71%
    22:00 -4°C° 0 mm 4 m/s 760 mmHg 72%
    23:00 -4°C° 0 mm 4 m/s 760 mmHg 73%

    Depois de amanhã, 19 Fevereiro, Terça-feira

    Tempo Temperatura Precipitação Vento Pressão Humidade
    00:00 -3°C° 0 mm 4 m/s 759 mmHg 75%
    01:00 -4°C° 0 mm 5 m/s 759 mmHg 77%
    02:00 -4°C° 0 mm 5 m/s 758 mmHg 79%
    03:00 -4°C° 0 mm 5 m/s 757 mmHg 82%
    04:00 -4°C° 0 mm 5 m/s 757 mmHg 85%
    05:00 -2°C° 0 mm 5 m/s 756 mmHg 88%
    06:00 -2°C° 0 mm 5 m/s 755 mmHg 89%
    07:00 -1°C° 0 mm 5 m/s 755 mmHg 89%
    08:00 -1°C° 0 mm 5 m/s 755 mmHg 89%
    09:00 0°C° 0 mm 5 m/s 754 mmHg 88%
    10:00 0°C° 0 mm 5 m/s 754 mmHg 88%
    11:00 0°C° 0 mm 5 m/s 753 mmHg 87%
    12:00 0°C° 0 mm 5 m/s 752 mmHg 86%
    13:00 +1°C° 0 mm 5 m/s 752 mmHg 85%
    14:00 +1°C° 0 mm 5 m/s 751 mmHg 84%
    15:00 +1°C° 0 mm 5 m/s 750 mmHg 85%
    16:00 +1°C° 0 mm 5 m/s 750 mmHg 85%
    17:00 +1°C° 0 mm 4 m/s 749 mmHg 86%
    18:00 +1°C° 0 mm 4 m/s 748 mmHg 87%
    19:00 0°C° 0 mm 4 m/s 748 mmHg 88%
    20:00 0°C° 0 mm 5 m/s 747 mmHg 88%
    21:00 0°C° 0.6 mm 5 m/s 747 mmHg 88%
    22:00 0°C° 0.6 mm 5 m/s 746 mmHg 88%
    23:00 +1°C° 0.6 mm 5 m/s 746 mmHg 88%

    20 Fevereiro, Quarta-feira

    Tempo Temperatura Precipitação Vento Pressão Humidade
    00:00 +1°C° 0.3 mm 4 m/s 746 mmHg 90%
    01:00 +1°C° 0.3 mm 4 m/s 745 mmHg 91%
    02:00 +1°C° 0.3 mm 4 m/s 745 mmHg 93%
    03:00 +1°C° 0.1 mm 4 m/s 745 mmHg 92%
    04:00 +1°C° 0.1 mm 4 m/s 744 mmHg 92%
    05:00 +1°C° 0.1 mm 5 m/s 744 mmHg 92%
    06:00 +1°C° 0.3 mm 5 m/s 744 mmHg 90%
    07:00 +1°C° 0.3 mm 5 m/s 743 mmHg 89%
    08:00 +1°C° 0.3 mm 5 m/s 743 mmHg 87%
    09:00 +1°C° 0.2 mm 5 m/s 743 mmHg 85%
    10:00 +1°C° 0.2 mm 5 m/s 743 mmHg 84%
    11:00 +1°C° 0.2 mm 5 m/s 743 mmHg 82%
    12:00 +1°C° 0.2 mm 6 m/s 743 mmHg 77%
    13:00 +1°C° 0.2 mm 6 m/s 743 mmHg 72%
    14:00 +1°C° 0.2 mm 6 m/s 743 mmHg 66%
    15:00 -1°C° 0.1 mm 6 m/s 743 mmHg 67%
    16:00 -2°C° 0.1 mm 6 m/s 744 mmHg 67%
    17:00 -2°C° 0.1 mm 5 m/s 744 mmHg 68%
    18:00 -3°C° 0.3 mm 6 m/s 744 mmHg 73%
    19:00 -3°C° 0.3 mm 6 m/s 745 mmHg 78%
    20:00 -4°C° 0.3 mm 7 m/s 745 mmHg 83%
    21:00 -4°C° 0.2 mm 7 m/s 746 mmHg 81%
    22:00 -4°C° 0.2 mm 7 m/s 747 mmHg 78%
    23:00 -6°C° 0.2 mm 7 m/s 747 mmHg 76%

    21 Fevereiro, Quinta-feira

    Tempo Temperatura Precipitação Vento Pressão Humidade
    00:00 -6°C° 0.1 mm 7 m/s 748 mmHg 73%
    01:00 -7°C° 0.1 mm 7 m/s 749 mmHg 71%
    02:00 -8°C° 0.1 mm 7 m/s 750 mmHg 68%
    03:00 -8°C° 0.1 mm 7 m/s 751 mmHg 68%
    04:00 -8°C° 0.1 mm 7 m/s 752 mmHg 67%
    05:00 -9°C° 0.1 mm 7 m/s 753 mmHg 67%
    06:00 -9°C° 0 mm 7 m/s 754 mmHg 67%
    07:00 -9°C° 0 mm 7 m/s 755 mmHg 67%
    08:00 -9°C° 0 mm 7 m/s 755 mmHg 67%
    09:00 -9°C° 0.1 mm 6 m/s 756 mmHg 65%
    10:00 -9°C° 0.1 mm 6 m/s 757 mmHg 64%
    11:00 -9°C° 0.1 mm 6 m/s 758 mmHg 63%
    12:00 -8°C° 0 mm 6 m/s 759 mmHg 62%
    13:00 -7°C° 0 mm 5 m/s 759 mmHg 61%
    14:00 -7°C° 0 mm 5 m/s 760 mmHg 60%
    15:00 -7°C° 0 mm 5 m/s 760 mmHg 62%
    16:00 -8°C° 0 mm 5 m/s 761 mmHg 64%
    17:00 -8°C° 0 mm 5 m/s 762 mmHg 66%
    18:00 -9°C° 0 mm 4 m/s 762 mmHg 67%
    19:00 -9°C° 0 mm 4 m/s 763 mmHg 69%
    20:00 -9°C° 0 mm 4 m/s 764 mmHg 70%
    21:00 -9°C° 0 mm 3 m/s 764 mmHg 72%
    22:00 -9°C° 0 mm 3 m/s 765 mmHg 74%
    23:00 -9°C° 0 mm 3 m/s 765 mmHg 76%

    22 Fevereiro, Sexta-feira

    Tempo Temperatura Precipitação Vento Pressão Humidade
    00:00 -9°C° 0 mm 3 m/s 766 mmHg 77%
    01:00 -10°C° 0 mm 3 m/s 767 mmHg 78%
    02:00 -9°C° 0 mm 2 m/s 767 mmHg 80%
    03:00 -9°C° 0 mm 2 m/s 768 mmHg 80%
    04:00 -9°C° 0 mm 2 m/s 768 mmHg 80%
    05:00 -9°C° 0 mm 2 m/s 769 mmHg 81%
    06:00 -9°C° 0 mm 2 m/s 769 mmHg 81%
    07:00 -9°C° 0 mm 2 m/s 770 mmHg 81%
    08:00 -9°C° 0 mm 2 m/s 771 mmHg 80%
    09:00 -8°C° 0 mm 2 m/s 771 mmHg 75%
    10:00 -7°C° 0 mm 2 m/s 772 mmHg 70%
    11:00 -6°C° 0 mm 2 m/s 772 mmHg 64%
    12:00 -5°C° 0 mm 2 m/s 773 mmHg 60%
    13:00 -4°C° 0 mm 2 m/s 773 mmHg 56%
    14:00 -4°C° 0 mm 3 m/s 773 mmHg 52%
    15:00 -4°C° 0 mm 2 m/s 774 mmHg 56%
    16:00 -5°C° 0 mm 2 m/s 774 mmHg 61%
    17:00 -5°C° 0 mm 2 m/s 774 mmHg 66%
    18:00 -6°C° 0 mm 2 m/s 775 mmHg 69%
    19:00 -6°C° 0 mm 2 m/s 775 mmHg 72%
    20:00 -7°C° 0 mm 2 m/s 775 mmHg 76%
    21:00 -7°C° 0 mm 2 m/s 776 mmHg 76%
    22:00 -6°C° 0 mm 1 m/s 776 mmHg 76%
    23:00 -7°C° 0 mm 1 m/s 776 mmHg 76%
    Mostrar mais